Time,TemperatureF,DewpointF,PressureIn,WindDirection,WindDirectionDegrees,WindSpeedMPH,WindSpeedGustMPH,Humidity,HourlyPrecipIn,Conditions,Clouds,dailyrainin,SolarRadiationWatts/m^2,SoftwareType,DateUTC
2013-08-05 00:00:00,88.9,70.1,30.02,SSE,158,2.3,2.3,54,0.00,CLR,,0.00,0.0,WeatherDisplay:10.37,2013-08-05 05:00:00,
2013-08-05 00:05:00,88.9,70.1,30.02,ENE,68,2.3,2.3,54,0.00,CLR,,0.00,0.0,WeatherDisplay:10.37,2013-08-05 05:05:00,
2013-08-05 00:10:00,88.9,70.1,30.02,ENE,68,2.3,2.3,54,0.00,CLR,,0.00,0.0,WeatherDisplay:10.37,2013-08-05 05:10:00,
2013-08-05 00:15:00,88.7,69.9,30.02,SE,135,2.4,2.4,54,0.00,CLR,,0.00,0.0,WeatherDisplay:10.37,2013-08-05 05:15:00,
2013-08-05 00:21:00,88.7,70.5,30.02,SSE,158,2.3,2.3,55,0.00,CLR,,0.00,0.0,WeatherDisplay:10.37,2013-08-05 05:21:00,
2013-08-05 00:25:00,88.3,70.1,30.02,SE,135,2.3,2.3,55,0.00,CLR,,0.00,0.0,WeatherDisplay:10.37,2013-08-05 05:25:00,
2013-08-05 00:31:00,88.3,70.1,30.11,SE,135,2.3,2.3,55,0.00,CLR,,0.00,0.0,WeatherDisplay:10.37,2013-08-05 05:31:00,
2013-08-05 00:36:00,88.2,70.5,30.11,ESE,112,2.3,2.3,56,0.00,CLR,,0.00,0.0,WeatherDisplay:10.37,2013-08-05 05:36:00,
2013-08-05 00:42:00,88.0,69.8,30.11,ESE,112,0.0,1.8,55,0.00,CLR,,0.00,0.0,WeatherDisplay:10.37,2013-08-05 05:42:00,
2013-08-05 00:47:00,88.0,69.8,30.11,SSE,158,2.5,2.5,55,0.00,CLR,,0.00,0.0,WeatherDisplay:10.37,2013-08-05 05:47:00,
2013-08-05 00:52:00,88.0,69.8,30.01,SE,135,3.5,3.5,55,0.00,CLR,,0.00,0.0,WeatherDisplay:10.37,2013-08-05 05:52:00,
2013-08-05 00:57:00,87.6,70.0,30.01,East,90,4.6,4.6,56,0.00,CLR,,0.00,0.0,WeatherDisplay:10.37,2013-08-05 05:57:00,
2013-08-05 01:02:00,87.6,70.0,30.01,SE,135,3.6,3.6,56,0.00,CLR,,0.00,0.0,WeatherDisplay:10.37,2013-08-05 06:02:00,
2013-08-05 01:07:00,87.6,70.0,30.01,ESE,112,2.3,2.3,56,0.00,CLR,,0.00,0.0,WeatherDisplay:10.37,2013-08-05 06:07:00,
2013-08-05 01:12:00,87.4,69.8,30.00,ESE,112,2.8,2.8,56,0.00,CLR,,0.00,0.0,WeatherDisplay:10.37,2013-08-05 06:12:00,
2013-08-05 01:18:00,87.6,70.0,30.00,SE,135,4.6,4.6,56,0.00,CLR,,0.00,0.0,WeatherDisplay:10.37,2013-08-05 06:18:00,
2013-08-05 01:23:00,87.4,69.8,30.00,SE,135,3.5,3.5,56,0.00,CLR,,0.00,0.0,WeatherDisplay:10.37,2013-08-05 06:23:00,
2013-08-05 01:28:00,87.3,69.6,29.99,ESE,112,5.8,5.8,56,0.00,CLR,,0.00,0.0,WeatherDisplay:10.37,2013-08-05 06:28:00,
2013-08-05 01:33:00,87.3,69.6,29.99,East,90,4.6,4.6,56,0.00,CLR,,0.00,0.0,WeatherDisplay:10.37,2013-08-05 06:33:00,
2013-08-05 01:39:00,87.3,69.6,29.99,ESE,112,5.8,5.8,56,0.00,CLR,,0.00,0.0,WeatherDisplay:10.37,2013-08-05 06:39:00,
2013-08-05 01:44:00,87.1,69.5,29.99,SE,135,5.8,5.8,56,0.00,CLR,,0.00,0.0,WeatherDisplay:10.37,2013-08-05 06:44:00,
2013-08-05 01:49:00,86.9,69.8,29.99,ESE,112,4.9,4.9,57,0.00,CLR,,0.00,0.0,WeatherDisplay:10.37,2013-08-05 06:49:00,
2013-08-05 01:54:00,86.9,69.8,29.99,SE,135,3.5,3.5,57,0.00,CLR,,0.00,0.0,WeatherDisplay:10.37,2013-08-05 06:54:00,
2013-08-05 01:59:00,86.7,69.7,29.99,SE,135,4.6,4.6,57,0.00,CLR,,0.00,0.0,WeatherDisplay:10.37,2013-08-05 06:59:00,
2013-08-05 02:04:00,86.7,69.7,29.99,SE,135,4.6,4.6,57,0.00,CLR,,0.00,0.0,WeatherDisplay:10.37,2013-08-05 07:04:00,
2013-08-05 02:10:00,86.7,69.7,29.99,SE,135,4.6,4.6,57,0.00,CLR,,0.00,0.0,WeatherDisplay:10.37,2013-08-05 07:10:00,
2013-08-05 02:15:00,86.5,70.0,29.99,SSE,158,6.9,6.9,58,0.00,CLR,,0.00,0.0,WeatherDisplay:10.37,2013-08-05 07:15:00,
2013-08-05 02:20:00,86.4,69.8,29.99,ESE,112,4.6,4.6,58,0.00,CLR,,0.00,0.0,WeatherDisplay:10.37,2013-08-05 07:20:00,
2013-08-05 02:25:00,86.5,70.0,29.99,SE,135,4.6,4.6,58,0.00,CLR,,0.00,0.0,WeatherDisplay:10.37,2013-08-05 07:25:00,
2013-08-05 02:30:00,86.4,70.3,30.00,SW,225,4.6,4.6,59,0.00,CLR,,0.00,0.0,WeatherDisplay:10.37,2013-08-05 07:30:00,
2013-08-05 02:36:00,86.2,70.2,30.00,South,180,3.5,3.5,59,0.00,CLR,,0.00,0.0,WeatherDisplay:10.37,2013-08-05 07:36:00,
2013-08-05 02:41:00,86.2,70.7,30.00,SSE,158,4.7,4.7,60,0.00,CLR,,0.00,0.0,WeatherDisplay:10.37,2013-08-05 07:41:00,
2013-08-05 02:46:00,86.0,71.0,30.00,South,180,4.7,4.7,61,0.00,CLR,,0.00,0.0,WeatherDisplay:10.37,2013-08-05 07:46:00,
2013-08-05 02:51:00,85.8,70.8,30.00,NW,315,2.6,2.6,61,0.00,CLR,,0.00,0.0,WeatherDisplay:10.37,2013-08-05 07:51:00,
2013-08-05 02:57:00,85.8,70.8,30.00,NNE,22,3.5,3.5,61,0.00,CLR,,0.00,0.0,WeatherDisplay:10.37,2013-08-05 07:57:00,
2013-08-05 03:02:00,85.6,71.1,30.00,South,180,2.3,2.3,62,0.00,CLR,,0.00,0.0,WeatherDisplay:10.37,2013-08-05 08:02:00,
2013-08-05 03:07:00,85.6,71.1,30.00,South,180,2.3,2.3,62,0.00,CLR,,0.00,0.0,WeatherDisplay:10.37,2013-08-05 08:07:00,
2013-08-05 03:13:00,85.5,71.4,29.98,South,180,4.6,4.6,63,0.00,CLR,,0.00,0.0,WeatherDisplay:10.37,2013-08-05 08:13:00,
2013-08-05 03:18:00,85.5,71.4,29.98,South,180,3.5,3.5,63,0.00,CLR,,0.00,0.0,WeatherDisplay:10.37,2013-08-05 08:18:00,
2013-08-05 03:23:00,85.3,71.3,29.98,SSE,158,4.6,4.6,63,0.00,CLR,,0.00,0.0,WeatherDisplay:10.37,2013-08-05 08:23:00,
2013-08-05 03:28:00,85.3,71.7,30.00,SSE,158,4.6,4.6,64,0.00,CLR,,0.00,0.0,WeatherDisplay:10.37,2013-08-05 08:28:00,
2013-08-05 03:34:00,85.5,71.9,30.00,SSE,158,2.8,2.8,64,0.00,CLR,,0.00,0.0,WeatherDisplay:10.37,2013-08-05 08:34:00,
2013-08-05 03:39:00,85.3,71.7,30.00,South,180,2.9,2.9,64,0.00,CLR,,0.00,0.0,WeatherDisplay:10.37,2013-08-05 08:39:00,
2013-08-05 03:44:00,85.1,71.5,30.00,South,180,5.5,5.5,64,0.00,CLR,,0.00,0.0,WeatherDisplay:10.37,2013-08-05 08:44:00,
2013-08-05 03:49:00,85.1,71.5,30.00,SSE,158,4.6,4.6,64,0.00,CLR,,0.00,0.0,WeatherDisplay:10.37,2013-08-05 08:49:00,
2013-08-05 03:55:00,84.9,71.8,30.00,WSW,248,4.6,4.6,65,0.00,CLR,,0.00,0.0,WeatherDisplay:10.37,2013-08-05 08:55:00,
2013-08-05 04:00:00,85.1,72.0,30.00,SSE,158,3.5,3.5,65,0.00,CLR,,0.00,0.0,WeatherDisplay:10.37,2013-08-05 09:00:00,
2013-08-05 04:05:00,84.9,71.8,30.00,ESE,112,4.6,4.6,65,0.00,CLR,,0.00,0.0,WeatherDisplay:10.37,2013-08-05 09:05:00,
2013-08-05 04:11:00,84.7,71.7,30.00,SSE,158,2.5,2.5,65,0.00,CLR,,0.00,0.0,WeatherDisplay:10.37,2013-08-05 09:11:00,
2013-08-05 04:16:00,84.7,71.7,30.00,South,180,4.6,4.6,65,0.00,CLR,,0.00,0.0,WeatherDisplay:10.37,2013-08-05 09:16:00,
2013-08-05 04:21:00,84.6,71.9,30.00,South,180,2.3,2.3,66,0.00,CLR,,0.00,0.0,WeatherDisplay:10.37,2013-08-05 09:21:00,
2013-08-05 04:27:00,84.7,72.1,30.00,SSE,158,4.6,4.6,66,0.00,CLR,,0.00,0.0,WeatherDisplay:10.37,2013-08-05 09:27:00,
2013-08-05 04:32:00,84.6,71.9,29.99,SW,225,3.5,3.5,66,0.00,CLR,,0.00,0.0,WeatherDisplay:10.37,2013-08-05 09:32:00,
2013-08-05 04:37:00,84.4,71.8,29.99,SE,135,1.2,1.8,66,0.00,CLR,,0.00,0.0,WeatherDisplay:10.37,2013-08-05 09:37:00,
2013-08-05 04:42:00,84.4,71.8,29.99,South,180,2.3,2.3,66,0.00,CLR,,0.00,0.0,WeatherDisplay:10.37,2013-08-05 09:42:00,
2013-08-05 04:48:00,84.2,71.6,29.99,SSE,158,2.3,2.3,66,0.00,CLR,,0.00,0.0,WeatherDisplay:10.37,2013-08-05 09:48:00,
2013-08-05 04:53:00,84.4,71.8,29.99,SSE,158,2.3,2.3,66,0.00,CLR,,0.00,0.0,WeatherDisplay:10.37,2013-08-05 09:53:00,
2013-08-05 04:59:00,84.2,71.6,29.99,SSE,158,2.3,2.3,66,0.00,CLR,,0.00,0.0,WeatherDisplay:10.37,2013-08-05 09:59:00,
2013-08-05 05:05:00,84.0,71.9,29.99,SW,225,2.3,2.4,67,0.00,CLR,,0.00,0.0,WeatherDisplay:10.37,2013-08-05 10:05:00,
2013-08-05 05:10:00,83.8,71.7,30.00,West,270,3.5,3.5,67,0.00,CLR,,0.00,0.0,WeatherDisplay:10.37,2013-08-05 10:10:00,
2013-08-05 05:15:00,83.8,71.7,30.00,South,180,4.6,4.6,67,0.00,CLR,,0.00,0.0,WeatherDisplay:10.37,2013-08-05 10:15:00,
2013-08-05 05:20:00,83.8,71.7,30.00,South,180,1.2,1.2,67,0.00,CLR,,0.00,0.0,WeatherDisplay:10.37,2013-08-05 10:20:00,
2013-08-05 05:26:00,83.7,71.5,30.00,South,180,2.3,2.3,67,0.00,CLR,,0.00,0.0,WeatherDisplay:10.37,2013-08-05 10:26:00,
2013-08-05 05:31:00,83.7,71.5,30.01,SW,225,2.3,2.3,67,0.00,CLR,,0.00,0.0,WeatherDisplay:10.37,2013-08-05 10:31:00,
2013-08-05 05:37:00,83.7,72.0,30.01,WSW,248,2.3,2.3,68,0.00,CLR,,0.00,0.0,WeatherDisplay:10.37,2013-08-05 10:37:00,
2013-08-05 05:42:00,83.5,71.8,30.01,SE,135,3.5,3.5,68,0.00,CLR,,0.00,0.0,WeatherDisplay:10.37,2013-08-05 10:42:00,
2013-08-05 05:47:00,83.3,71.6,30.01,SSE,158,3.5,3.5,68,0.00,CLR,,0.00,0.0,WeatherDisplay:10.37,2013-08-05 10:47:00,
2013-08-05 05:53:00,83.1,71.5,29.97,SW,225,3.5,3.5,68,0.00,CLR,,0.00,0.0,WeatherDisplay:10.37,2013-08-05 10:53:00,
2013-08-05 05:58:00,83.3,71.6,29.97,SE,135,1.2,1.2,68,0.00,CLR,,0.00,0.0,WeatherDisplay:10.37,2013-08-05 10:58:00,
2013-08-05 06:03:00,83.3,72.1,29.97,South,180,2.3,2.3,69,0.00,CLR,,0.00,0.0,WeatherDisplay:10.37,2013-08-05 11:03:00,
2013-08-05 06:08:00,83.3,72.1,30.01,South,180,2.3,2.3,69,0.00,CLR,,0.00,0.0,WeatherDisplay:10.37,2013-08-05 11:08:00,
2013-08-05 06:14:00,82.9,71.7,30.01,South,180,2.3,2.3,69,0.00,CLR,,0.00,0.0,WeatherDisplay:10.37,2013-08-05 11:14:00,
2013-08-05 06:19:00,82.8,71.5,30.01,SW,225,2.6,2.6,69,0.00,OVC,,0.00,0.0,WeatherDisplay:10.37,2013-08-05 11:19:00,
2013-08-05 06:24:00,82.8,71.5,30.01,SSE,158,4.6,4.6,69,0.00,OVC,,0.00,0.0,WeatherDisplay:10.37,2013-08-05 11:24:00,
2013-08-05 06:29:00,82.6,71.8,30.01,ESE,112,2.3,2.3,70,0.00,OVC,,0.00,0.0,WeatherDisplay:10.37,2013-08-05 11:29:00,
2013-08-05 06:35:00,82.6,71.8,30.01,SW,225,2.3,2.3,70,0.00,OVC,,0.00,0.0,WeatherDisplay:10.37,2013-08-05 11:35:00,
2013-08-05 06:40:00,82.6,71.8,30.01,SSE,158,3.5,3.5,70,0.00,OVC,,0.00,0.0,WeatherDisplay:10.37,2013-08-05 11:40:00,
2013-08-05 06:45:00,82.6,71.8,30.01,SE,135,3.5,3.5,70,0.00,OVC,,0.00,0.0,WeatherDisplay:10.37,2013-08-05 11:45:00,
2013-08-05 06:52:00,82.2,71.5,30.01,SE,135,1.2,1.8,70,0.00,OVC,,0.00,0.0,WeatherDisplay:10.37,2013-08-05 11:52:00,
2013-08-05 06:57:00,82.0,71.3,30.01,West,270,1.5,1.5,70,0.00,OVC,,0.00,0.0,WeatherDisplay:10.37,2013-08-05 11:57:00,
2013-08-05 07:02:00,82.0,71.3,30.01,SSE,158,4.6,4.6,70,0.00,OVC,,0.00,0.0,WeatherDisplay:10.37,2013-08-05 12:02:00,
2013-08-05 07:07:00,82.2,71.5,30.01,South,180,1.4,1.6,70,0.00,OVC,,0.00,0.0,WeatherDisplay:10.37,2013-08-05 12:07:00,
2013-08-05 07:13:00,81.9,71.1,30.01,SSW,202,2.3,2.3,70,0.00,OVC,,0.00,0.0,WeatherDisplay:10.37,2013-08-05 12:13:00,
2013-08-05 07:18:00,81.9,71.1,30.01,SE,135,5.8,5.8,70,0.00,OVC,,0.00,0.0,WeatherDisplay:10.37,2013-08-05 12:18:00,
2013-08-05 07:23:00,81.9,71.1,30.01,SE,135,2.3,2.3,70,0.00,OVC,,0.00,0.0,WeatherDisplay:10.37,2013-08-05 12:23:00,
2013-08-05 07:28:00,81.7,70.9,30.01,SSW,202,2.3,2.3,70,0.00,OVC,,0.00,0.0,WeatherDisplay:10.37,2013-08-05 12:28:00,
2013-08-05 07:33:00,81.9,71.1,30.02,SSE,158,3.5,3.5,70,0.00,OVC,,0.00,0.0,WeatherDisplay:10.37,2013-08-05 12:33:00,
2013-08-05 07:39:00,81.9,71.1,30.02,South,180,2.3,2.3,70,0.00,OVC,,0.00,0.0,WeatherDisplay:10.37,2013-08-05 12:39:00,
2013-08-05 07:44:00,81.9,71.1,30.02,South,180,2.4,2.4,70,0.00,OVC,,0.00,0.0,WeatherDisplay:10.37,2013-08-05 12:44:00,
2013-08-05 07:49:00,81.7,70.9,30.03,South,180,3.5,3.5,70,0.00,OVC,,0.00,0.0,WeatherDisplay:10.37,2013-08-05 12:49:00,
2013-08-05 07:54:00,81.5,70.3,30.03,South,180,3.5,3.5,69,0.00,OVC,,0.00,0.0,WeatherDisplay:10.37,2013-08-05 12:54:00,
2013-08-05 08:00:00,81.7,70.5,30.03,WSW,248,1.2,1.2,69,0.00,OVC,,0.00,0.0,WeatherDisplay:10.37,2013-08-05 13:00:00,
2013-08-05 08:05:00,81.7,70.5,30.03,SE,135,0.0,0.9,69,0.00,OVC,,0.00,0.0,WeatherDisplay:10.37,2013-08-05 13:05:00,
2013-08-05 08:10:00,81.7,70.5,30.04,SW,225,1.2,1.2,69,0.00,OVC,,0.00,0.0,WeatherDisplay:10.37,2013-08-05 13:10:00,
2013-08-05 08:15:00,81.7,70.5,30.04,NW,315,1.2,1.2,69,0.00,OVC,,0.00,0.0,WeatherDisplay:10.37,2013-08-05 13:15:00,
2013-08-05 08:20:00,81.9,70.7,30.04,ENE,68,1.2,1.2,69,0.00,OVC,,0.00,0.0,WeatherDisplay:10.37,2013-08-05 13:20:00,
2013-08-05 08:25:00,81.9,70.3,30.04,South,180,2.3,2.3,68,0.00,OVC,,0.00,0.0,WeatherDisplay:10.37,2013-08-05 13:25:00,
2013-08-05 08:31:00,81.9,69.8,30.03,North,0,5.8,5.8,67,0.00,OVC,,0.00,0.0,WeatherDisplay:10.37,2013-08-05 13:31:00,
2013-08-05 08:36:00,81.9,70.3,30.03,South,180,0.0,1.3,68,0.00,OVC,,0.00,0.0,WeatherDisplay:10.37,2013-08-05 13:36:00,
2013-08-05 08:42:00,82.0,70.0,30.03,SW,225,2.3,2.3,67,0.00,OVC,,0.00,0.0,WeatherDisplay:10.37,2013-08-05 13:42:00,
2013-08-05 08:47:00,82.2,70.2,30.03,SSE,158,2.6,2.6,67,0.00,OVC,,0.00,0.0,WeatherDisplay:10.37,2013-08-05 13:47:00,
2013-08-05 08:53:00,82.4,69.9,30.04,SSW,202,1.2,1.2,66,0.00,OVC,,0.00,0.0,WeatherDisplay:10.37,2013-08-05 13:53:00,
2013-08-05 08:58:00,82.6,70.1,30.04,SSE,158,1.2,1.2,66,0.00,OVC,,0.00,0.0,WeatherDisplay:10.37,2013-08-05 13:58:00,
2013-08-05 09:03:00,82.8,70.2,30.04,West,270,2.3,2.3,66,0.00,OVC,,0.00,0.0,WeatherDisplay:10.37,2013-08-05 14:03:00,
2013-08-05 09:09:00,82.9,70.0,30.05,WNW,292,2.3,2.3,65,0.00,OVC,,0.00,0.0,WeatherDisplay:10.37,2013-08-05 14:09:00,
2013-08-05 09:14:00,83.1,69.7,30.05,SSE,158,2.3,2.3,64,0.00,OVC,,0.00,0.0,WeatherDisplay:10.37,2013-08-05 14:14:00,
2013-08-05 09:20:00,83.5,70.0,30.05,West,270,2.3,2.3,64,0.00,OVC,,0.00,0.0,WeatherDisplay:10.37,2013-08-05 14:20:00,
2013-08-05 09:25:00,83.7,70.2,30.05,SW,225,0.0,1.0,64,0.00,OVC,,0.00,0.0,WeatherDisplay:10.37,2013-08-05 14:25:00,
2013-08-05 09:31:00,83.7,69.7,30.04,SSE,158,3.5,3.5,63,0.00,OVC,,0.00,0.0,WeatherDisplay:10.37,2013-08-05 14:31:00,
2013-08-05 09:36:00,84.0,69.1,30.04,WSW,248,1.2,1.2,61,0.00,OVC,,0.00,0.0,WeatherDisplay:10.37,2013-08-05 14:36:00,
2013-08-05 09:42:00,84.2,69.3,30.04,SSW,202,1.2,1.2,61,0.00,OVC,,0.00,0.0,WeatherDisplay:10.37,2013-08-05 14:42:00,
2013-08-05 09:47:00,84.6,69.1,30.04,WSW,248,1.2,1.2,60,0.00,OVC,,0.00,0.0,WeatherDisplay:10.37,2013-08-05 14:47:00,
2013-08-05 09:52:00,85.1,69.2,30.06,ENE,68,1.2,1.2,59,0.00,OVC,,0.00,0.0,WeatherDisplay:10.37,2013-08-05 14:52:00,
2013-08-05 09:58:00,85.3,68.8,30.06,SSE,158,2.3,2.3,58,0.00,OVC,,0.00,60.0,WeatherDisplay:10.37,2013-08-05 14:58:00,
2013-08-05 10:03:00,85.5,68.5,30.06,SSE,158,0.0,0.6,57,0.00,OVC,,0.00,60.0,WeatherDisplay:10.37,2013-08-05 15:03:00,
2013-08-05 10:09:00,85.8,67.8,30.04,WNW,292,2.3,2.3,55,0.00,OVC,,0.00,60.0,WeatherDisplay:10.37,2013-08-05 15:09:00,
2013-08-05 10:14:00,86.0,68.5,30.04,SSE,158,0.0,0.7,56,0.00,OVC,,0.00,60.0,WeatherDisplay:10.37,2013-08-05 15:14:00,
2013-08-05 10:19:00,86.5,67.9,30.04,SW,225,2.3,2.3,54,0.00,OVC,,0.00,60.0,WeatherDisplay:10.37,2013-08-05 15:19:00,
2013-08-05 10:24:00,86.5,68.5,30.04,WNW,292,0.0,0.8,55,0.00,OVC,,0.00,60.0,WeatherDisplay:10.37,2013-08-05 15:24:00,
2013-08-05 10:29:00,86.9,68.3,30.04,West,270,0.0,0.5,54,0.00,OVC,,0.00,60.0,WeatherDisplay:10.37,2013-08-05 15:29:00,
2013-08-05 10:34:00,87.1,67.9,30.04,South,180,1.2,1.2,53,0.00,OVC,,0.00,70.0,WeatherDisplay:10.37,2013-08-05 15:34:00,
2013-08-05 10:40:00,87.3,68.0,30.04,SW,225,0.0,0.3,53,0.00,OVC,,0.00,70.0,WeatherDisplay:10.37,2013-08-05 15:40:00,
2013-08-05 10:45:00,88.0,68.1,30.04,South,180,1.2,1.2,52,0.00,OVC,,0.00,60.0,WeatherDisplay:10.37,2013-08-05 15:45:00,
2013-08-05 10:50:00,87.8,67.4,30.04,South,180,1.2,1.2,51,0.00,OVC,,0.00,60.0,WeatherDisplay:10.37,2013-08-05 15:50:00,
2013-08-05 10:55:00,88.2,68.3,30.04,SSW,202,2.3,2.3,52,0.00,OVC,,0.00,60.0,WeatherDisplay:10.37,2013-08-05 15:55:00,
2013-08-05 11:00:00,88.3,67.3,30.04,West,270,2.3,2.3,50,0.00,OVC,,0.00,60.0,WeatherDisplay:10.37,2013-08-05 16:00:00,
2013-08-05 11:05:00,88.5,67.5,30.04,NNE,22,1.2,1.2,50,0.00,OVC,,0.00,70.0,WeatherDisplay:10.37,2013-08-05 16:05:00,
2013-08-05 11:11:00,88.7,67.7,30.04,WSW,248,1.2,1.2,50,0.00,OVC,,0.00,70.0,WeatherDisplay:10.37,2013-08-05 16:11:00,
2013-08-05 11:16:00,89.1,68.0,30.04,NNW,338,1.3,1.3,50,0.00,OVC,,0.00,70.0,WeatherDisplay:10.37,2013-08-05 16:16:00,
2013-08-05 11:21:00,89.4,67.7,30.04,SSW,202,4.6,4.6,49,0.00,OVC,,0.00,70.0,WeatherDisplay:10.37,2013-08-05 16:21:00,
2013-08-05 11:27:00,89.4,67.1,30.04,WNW,292,1.2,1.2,48,0.00,OVC,,0.00,70.0,WeatherDisplay:10.37,2013-08-05 16:27:00,
2013-08-05 11:32:00,89.6,67.9,30.04,WNW,292,1.2,1.2,49,0.00,OVC,,0.00,60.0,WeatherDisplay:10.37,2013-08-05 16:32:00,
2013-08-05 11:37:00,90.0,67.0,30.04,South,180,1.2,1.2,47,0.00,OVC,,0.00,60.0,WeatherDisplay:10.37,2013-08-05 16:37:00,
2013-08-05 11:42:00,90.5,67.5,30.04,NW,315,2.3,2.3,47,0.00,OVC,,0.00,60.0,WeatherDisplay:10.37,2013-08-05 16:42:00,
2013-08-05 11:47:00,90.3,67.4,30.04,SW,225,1.2,1.2,47,0.00,CLR,,0.00,60.0,WeatherDisplay:10.37,2013-08-05 16:47:00,
2013-08-05 11:53:00,90.5,68.1,30.03,SW,225,2.3,2.3,48,0.00,CLR,,0.00,60.0,WeatherDisplay:10.37,2013-08-05 16:53:00,
2013-08-05 11:58:00,91.0,68.6,30.03,West,270,4.7,4.7,48,0.00,CLR,,0.00,60.0,WeatherDisplay:10.37,2013-08-05 16:58:00,
2013-08-05 12:04:00,91.0,68.0,30.03,South,180,4.6,4.6,47,0.00,CLR,,0.00,60.0,WeatherDisplay:10.37,2013-08-05 17:04:00,
2013-08-05 12:10:00,91.0,68.0,30.03,South,180,4.6,4.6,47,0.00,CLR,,0.00,60.0,WeatherDisplay:10.37,2013-08-05 17:10:00,
2013-08-05 12:15:00,91.4,69.0,30.03,WSW,248,3.7,3.7,48,0.00,SCT,,0.00,50.0,WeatherDisplay:10.37,2013-08-05 17:15:00,
2013-08-05 12:20:00,91.9,68.2,30.03,ESE,112,0.0,0.7,46,0.00,SCT,,0.00,50.0,WeatherDisplay:10.37,2013-08-05 17:20:00,
2013-08-05 12:25:00,91.9,68.2,30.03,South,180,1.2,1.2,46,0.00,SCT,,0.00,60.0,WeatherDisplay:10.37,2013-08-05 17:25:00,
2013-08-05 12:31:00,92.3,68.5,30.03,SSW,202,1.2,1.2,46,0.00,BKN,,0.00,60.0,WeatherDisplay:10.37,2013-08-05 17:31:00,
2013-08-05 12:36:00,92.7,68.9,30.03,SSE,158,3.5,3.5,46,0.00,BKN,,0.00,60.0,WeatherDisplay:10.37,2013-08-05 17:36:00,
2013-08-05 12:42:00,92.7,68.9,30.03,SW,225,6.9,6.9,46,0.00,BKN,,0.00,60.0,WeatherDisplay:10.37,2013-08-05 17:42:00,
2013-08-05 12:48:00,93.0,67.9,30.01,South,180,3.5,3.5,44,0.00,OVC,,0.00,60.0,WeatherDisplay:10.37,2013-08-05 17:48:00,
2013-08-05 12:53:00,93.2,68.7,30.01,SSW,202,1.2,1.2,45,0.00,OVC,,0.00,60.0,WeatherDisplay:10.37,2013-08-05 17:53:00,
2013-08-05 12:58:00,93.4,68.9,30.01,NW,315,1.5,1.5,45,0.00,OVC,,0.00,60.0,WeatherDisplay:10.37,2013-08-05 17:58:00,
2013-08-05 13:04:00,93.6,69.0,30.01,SW,225,1.2,1.2,45,0.00,OVC,,0.00,60.0,WeatherDisplay:10.37,2013-08-05 18:04:00,
2013-08-05 13:09:00,93.9,68.7,30.00,NE,45,1.2,1.2,44,0.00,OVC,,0.00,60.0,WeatherDisplay:10.37,2013-08-05 18:09:00,
2013-08-05 13:17:00,94.5,69.2,30.00,West,270,2.3,2.3,44,0.00,OVC,,0.00,60.0,WeatherDisplay:10.37,2013-08-05 18:17:00,
2013-08-05 13:22:00,94.6,69.3,30.00,South,180,6.9,6.9,44,0.00,OVC,,0.00,60.0,WeatherDisplay:10.37,2013-08-05 18:22:00,
2013-08-05 13:27:00,95.0,69.7,30.00,ESE,112,8.1,8.1,44,0.00,OVC,,0.00,60.0,WeatherDisplay:10.37,2013-08-05 18:27:00,
2013-08-05 13:32:00,94.6,68.7,29.99,West,270,1.2,2.1,43,0.00,OVC,,0.00,60.0,WeatherDisplay:10.37,2013-08-05 18:32:00,
2013-08-05 13:38:00,94.8,68.8,29.99,ESE,112,1.2,1.2,43,0.00,OVC,,0.00,60.0,WeatherDisplay:10.37,2013-08-05 18:38:00,
2013-08-05 13:43:00,95.2,68.5,29.99,ENE,68,2.3,2.3,42,0.00,OVC,,0.00,60.0,WeatherDisplay:10.37,2013-08-05 18:43:00,
2013-08-05 13:48:00,95.4,68.6,29.99,West,270,0.0,0.5,42,0.00,OVC,,0.00,60.0,WeatherDisplay:10.37,2013-08-05 18:48:00,
2013-08-05 13:53:00,95.7,69.6,30.00,SE,135,3.5,3.5,43,0.00,OVC,,0.00,60.0,WeatherDisplay:10.37,2013-08-05 18:53:00,
2013-08-05 13:59:00,95.9,69.1,30.00,SSE,158,2.3,2.3,42,0.00,OVC,,0.00,60.0,WeatherDisplay:10.37,2013-08-05 18:59:00,
2013-08-05 14:04:00,96.4,68.2,30.00,SW,225,1.2,1.2,40,0.00,OVC,,0.00,60.0,WeatherDisplay:10.37,2013-08-05 19:04:00,
2013-08-05 14:09:00,96.6,69.1,29.97,WSW,248,1.2,1.2,41,0.00,OVC,,0.00,60.0,WeatherDisplay:10.37,2013-08-05 19:09:00,
2013-08-05 14:15:00,96.8,68.5,29.97,NW,315,1.2,1.2,40,0.00,OVC,,0.00,60.0,WeatherDisplay:10.37,2013-08-05 19:15:00,
2013-08-05 14:20:00,96.8,69.2,29.97,South,180,2.3,2.3,41,0.00,OVC,,0.00,60.0,WeatherDisplay:10.37,2013-08-05 19:20:00,
2013-08-05 14:25:00,97.0,68.7,29.97,West,270,2.3,2.3,40,0.00,OVC,,0.00,60.0,WeatherDisplay:10.37,2013-08-05 19:25:00,
2013-08-05 14:30:00,97.2,67.3,29.97,West,270,1.2,1.3,38,0.00,OVC,,0.00,60.0,WeatherDisplay:10.37,2013-08-05 19:30:00,
2013-08-05 14:35:00,97.2,68.8,29.97,SSE,158,4.6,4.6,40,0.00,OVC,,0.00,60.0,WeatherDisplay:10.37,2013-08-05 19:35:00,
2013-08-05 14:40:00,97.2,68.1,29.97,SSE,158,2.4,2.4,39,0.00,OVC,,0.00,60.0,WeatherDisplay:10.37,2013-08-05 19:40:00,
2013-08-05 14:46:00,97.7,67.8,29.97,South,180,0.0,1.0,38,0.00,OVC,,0.00,60.0,WeatherDisplay:10.37,2013-08-05 19:46:00,
2013-08-05 14:51:00,98.1,68.1,29.96,West,270,0.0,0.7,38,0.00,OVC,,0.00,60.0,WeatherDisplay:10.37,2013-08-05 19:51:00,
2013-08-05 14:57:00,97.9,68.0,29.96,WNW,292,1.2,1.2,38,0.00,OVC,,0.00,60.0,WeatherDisplay:10.37,2013-08-05 19:57:00,
2013-08-05 15:02:00,98.1,68.9,29.96,NNE,22,4.6,4.6,39,0.00,OVC,,0.00,60.0,WeatherDisplay:10.37,2013-08-05 20:02:00,
2013-08-05 15:08:00,98.1,68.1,29.96,West,270,1.6,1.6,38,0.00,OVC,,0.00,60.0,WeatherDisplay:10.37,2013-08-05 20:08:00,
2013-08-05 15:13:00,98.4,69.2,29.97,ESE,112,1.3,1.3,39,0.00,OVC,,0.00,60.0,WeatherDisplay:10.37,2013-08-05 20:13:00,
2013-08-05 15:18:00,98.2,68.3,29.97,SSE,158,4.6,4.6,38,0.00,OVC,,0.00,60.0,WeatherDisplay:10.37,2013-08-05 20:18:00,
2013-08-05 15:24:00,98.4,68.4,29.97,South,180,3.5,3.7,38,0.00,OVC,,0.00,60.0,WeatherDisplay:10.37,2013-08-05 20:24:00,
2013-08-05 15:29:00,98.6,69.4,29.94,SSE,158,4.6,4.6,39,0.00,OVC,,0.00,60.0,WeatherDisplay:10.37,2013-08-05 20:29:00,
2013-08-05 15:35:00,98.8,69.5,29.94,West,270,5.8,5.8,39,0.00,OVC,,0.00,60.0,WeatherDisplay:10.37,2013-08-05 20:35:00,
2013-08-05 15:40:00,98.8,68.8,29.94,ESE,112,3.5,3.5,38,0.00,OVC,,0.00,60.0,WeatherDisplay:10.37,2013-08-05 20:40:00,
2013-08-05 15:46:00,99.1,69.1,29.94,ESE,112,3.5,4.1,38,0.00,OVC,,0.00,60.0,WeatherDisplay:10.37,2013-08-05 20:46:00,
2013-08-05 15:51:00,99.1,68.3,29.94,WSW,248,4.6,4.6,37,0.00,OVC,,0.00,60.0,WeatherDisplay:10.37,2013-08-05 20:51:00,
2013-08-05 15:56:00,99.5,68.6,29.94,WNW,292,1.2,2.0,37,0.00,OVC,,0.00,60.0,WeatherDisplay:10.37,2013-08-05 20:56:00,
2013-08-05 16:01:00,99.7,69.6,29.94,SSE,158,4.6,4.6,38,0.00,OVC,,0.00,60.0,WeatherDisplay:10.37,2013-08-05 21:01:00,
2013-08-05 16:09:00,99.5,68.6,29.92,SSW,202,2.3,2.3,37,0.00,OVC,,0.00,0.0,WeatherDisplay:10.37,2013-08-05 21:09:00,
2013-08-05 16:14:00,99.7,68.0,29.92,WSW,248,1.2,1.3,36,0.00,OVC,,0.00,0.0,WeatherDisplay:10.37,2013-08-05 21:14:00,
2013-08-05 16:19:00,99.7,69.6,29.92,West,270,2.6,2.6,38,0.00,OVC,,0.00,0.0,WeatherDisplay:10.37,2013-08-05 21:19:00,
2013-08-05 16:26:00,99.9,68.9,29.92,ESE,112,6.9,6.9,37,0.00,OVC,,0.00,0.0,WeatherDisplay:10.37,2013-08-05 21:26:00,
2013-08-05 16:31:00,99.9,68.9,29.94,SE,135,5.8,5.8,37,0.00,OVC,,0.00,0.0,WeatherDisplay:10.37,2013-08-05 21:31:00,
2013-08-05 16:36:00,99.7,68.0,29.94,SSE,158,5.8,5.8,36,0.00,OVC,,0.00,0.0,WeatherDisplay:10.37,2013-08-05 21:36:00,
2013-08-05 16:41:00,99.7,67.2,29.94,WSW,248,2.5,2.5,35,0.00,OVC,,0.00,0.0,WeatherDisplay:10.37,2013-08-05 21:41:00,
2013-08-05 16:46:00,99.7,68.0,29.94,SSE,158,2.3,2.3,36,0.00,OVC,,0.00,0.0,WeatherDisplay:10.37,2013-08-05 21:46:00,
2013-08-05 16:52:00,99.9,68.1,29.93,ENE,68,0.0,2.1,36,0.00,OVC,,0.00,0.0,WeatherDisplay:10.37,2013-08-05 21:52:00,
2013-08-05 16:57:00,100.0,68.3,29.93,SSE,158,8.1,8.1,36,0.00,OVC,,0.00,0.0,WeatherDisplay:10.37,2013-08-05 21:57:00,
2013-08-05 17:02:00,100.0,68.3,29.93,SW,225,1.2,2.5,36,0.00,OVC,,0.00,60.0,WeatherDisplay:10.37,2013-08-05 22:02:00,
2013-08-05 17:07:00,100.2,67.6,29.93,WNW,292,4.6,4.6,35,0.00,OVC,,0.00,60.0,WeatherDisplay:10.37,2013-08-05 22:07:00,
2013-08-05 17:12:00,100.4,67.8,29.91,SSE,158,5.8,5.8,35,0.00,OVC,,0.00,40.0,WeatherDisplay:10.37,2013-08-05 22:12:00,
2013-08-05 17:17:00,100.2,67.6,29.91,SE,135,9.2,9.2,35,0.00,OVC,,0.00,50.0,WeatherDisplay:10.37,2013-08-05 22:17:00,
2013-08-05 17:22:00,100.6,67.9,29.91,WSW,248,1.2,2.8,35,0.00,OVC,,0.00,50.0,WeatherDisplay:10.37,2013-08-05 22:22:00,
2013-08-05 17:28:00,100.4,68.6,29.91,South,180,1.2,1.6,36,0.00,OVC,,0.00,60.0,WeatherDisplay:10.37,2013-08-05 22:28:00,
2013-08-05 17:33:00,100.6,67.9,29.91,SSW,202,3.5,3.5,35,0.00,OVC,,0.00,60.0,WeatherDisplay:10.37,2013-08-05 22:33:00,
2013-08-05 17:38:00,100.4,67.8,29.91,SSE,158,5.8,5.8,35,0.00,OVC,,0.00,60.0,WeatherDisplay:10.37,2013-08-05 22:38:00,
2013-08-05 17:43:00,100.6,67.9,29.91,SE,135,5.8,5.8,35,0.00,OVC,,0.00,60.0,WeatherDisplay:10.37,2013-08-05 22:43:00,
2013-08-05 17:48:00,100.6,67.9,29.90,West,270,2.3,3.3,35,0.00,OVC,,0.00,60.0,WeatherDisplay:10.37,2013-08-05 22:48:00,
2013-08-05 17:53:00,100.6,67.9,29.90,South,180,5.8,5.8,35,0.00,OVC,,0.00,60.0,WeatherDisplay:10.37,2013-08-05 22:53:00,
2013-08-05 17:58:00,100.4,68.6,29.90,SSE,158,2.3,2.4,36,0.00,OVC,,0.00,60.0,WeatherDisplay:10.37,2013-08-05 22:58:00,
2013-08-05 18:04:00,100.4,69.4,29.90,West,270,8.1,8.1,37,0.00,OVC,,0.00,40.0,WeatherDisplay:10.37,2013-08-05 23:04:00,
2013-08-05 18:09:00,100.6,68.8,29.89,South,180,5.8,5.8,36,0.00,OVC,,0.00,40.0,WeatherDisplay:10.37,2013-08-05 23:09:00,
2013-08-05 18:14:00,100.2,69.2,29.89,WNW,292,4.6,4.6,37,0.00,OVC,,0.00,40.0,WeatherDisplay:10.37,2013-08-05 23:14:00,
2013-08-05 18:20:00,100.2,69.2,29.89,South,180,9.2,9.2,37,0.00,OVC,,0.00,40.0,WeatherDisplay:10.37,2013-08-05 23:20:00,
2013-08-05 18:25:00,100.0,69.1,29.89,South,180,5.8,5.8,37,0.00,OVC,,0.00,30.0,WeatherDisplay:10.37,2013-08-05 23:25:00,
2013-08-05 18:31:00,100.2,68.4,29.88,SSE,158,8.1,8.1,36,0.00,OVC,,0.00,30.0,WeatherDisplay:10.37,2013-08-05 23:31:00,
2013-08-05 18:36:00,100.0,69.1,29.88,SSE,158,4.6,4.6,37,0.00,OVC,,0.00,30.0,WeatherDisplay:10.37,2013-08-05 23:36:00,
2013-08-05 18:41:00,100.0,69.1,29.88,South,180,6.9,6.9,37,0.00,OVC,,0.00,30.0,WeatherDisplay:10.37,2013-08-05 23:41:00,
2013-08-05 18:46:00,99.9,68.1,29.88,ESE,112,2.3,2.8,36,0.00,OVC,,0.00,30.0,WeatherDisplay:10.37,2013-08-05 23:46:00,
2013-08-05 18:52:00,99.7,68.0,29.88,SSE,158,8.1,8.1,36,0.00,OVC,,0.00,20.0,WeatherDisplay:10.37,2013-08-05 23:52:00,
2013-08-05 18:57:00,99.9,68.1,29.88,SW,225,6.9,6.9,36,0.00,OVC,,0.00,20.0,WeatherDisplay:10.37,2013-08-05 23:57:00,
2013-08-05 19:02:00,99.5,68.6,29.88,SSE,158,4.6,4.6,37,0.00,OVC,,0.00,20.0,WeatherDisplay:10.37,2013-08-06 00:02:00,
2013-08-05 19:08:00,99.5,68.6,29.88,South,180,7.1,7.1,37,0.00,OVC,,0.00,20.0,WeatherDisplay:10.37,2013-08-06 00:08:00,
2013-08-05 19:13:00,99.5,67.8,29.87,South,180,8.1,8.1,36,0.00,OVC,,0.00,20.0,WeatherDisplay:10.37,2013-08-06 00:13:00,
2013-08-05 19:18:00,99.5,67.8,29.87,SSE,158,5.8,5.8,36,0.00,OVC,,0.00,20.0,WeatherDisplay:10.37,2013-08-06 00:18:00,
2013-08-05 19:23:00,99.9,68.9,29.87,SE,135,6.9,6.9,37,0.00,OVC,,0.00,20.0,WeatherDisplay:10.37,2013-08-06 00:23:00,
2013-08-05 19:29:00,100.0,68.3,29.88,ENE,68,6.9,6.9,36,0.00,OVC,,0.00,20.0,WeatherDisplay:10.37,2013-08-06 00:29:00,
2013-08-05 19:34:00,100.0,68.3,29.88,South,180,4.8,4.8,36,0.00,OVC,,0.00,20.0,WeatherDisplay:10.37,2013-08-06 00:34:00,
2013-08-05 19:39:00,100.0,68.3,29.88,SSE,158,8.1,8.1,36,0.00,OVC,,0.00,20.0,WeatherDisplay:10.37,2013-08-06 00:39:00,
2013-08-05 19:45:00,100.0,68.3,29.88,South,180,5.8,5.8,36,0.00,OVC,,0.00,20.0,WeatherDisplay:10.37,2013-08-06 00:45:00,
2013-08-05 19:50:00,100.6,67.9,29.89,West,270,11.5,11.5,35,0.00,OVC,,0.00,20.0,WeatherDisplay:10.37,2013-08-06 00:50:00,
2013-08-05 19:56:00,100.0,68.3,29.89,SE,135,4.9,4.9,36,0.00,OVC,,0.00,20.0,WeatherDisplay:10.37,2013-08-06 00:56:00,
2013-08-05 20:01:00,99.1,68.3,29.89,SSE,158,3.5,3.5,37,0.00,OVC,,0.00,20.0,WeatherDisplay:10.37,2013-08-06 01:01:00,
2013-08-05 20:07:00,98.4,67.7,29.89,SSE,158,7.0,7.0,37,0.00,OVC,,0.00,20.0,WeatherDisplay:10.37,2013-08-06 01:07:00,
2013-08-05 20:12:00,97.9,67.2,29.88,SE,135,4.6,4.6,37,0.00,OVC,,0.00,20.0,WeatherDisplay:10.37,2013-08-06 01:12:00,
2013-08-05 20:18:00,97.7,67.8,29.88,SE,135,4.6,4.6,38,0.00,OVC,,0.00,20.0,WeatherDisplay:10.37,2013-08-06 01:18:00,
2013-08-05 20:24:00,97.3,67.5,29.88,SE,135,3.5,3.5,38,0.00,OVC,,0.00,20.0,WeatherDisplay:10.37,2013-08-06 01:24:00,
2013-08-05 20:29:00,97.0,67.2,29.89,SE,135,3.7,3.7,38,0.00,OVC,,0.00,20.0,WeatherDisplay:10.37,2013-08-06 01:29:00,
2013-08-05 20:34:00,96.8,67.0,29.89,WSW,248,2.3,2.4,38,0.00,OVC,,0.00,20.0,WeatherDisplay:10.37,2013-08-06 01:34:00,
2013-08-05 20:39:00,96.4,66.7,29.89,SSE,158,4.6,4.6,38,0.00,OVC,,0.00,20.0,WeatherDisplay:10.37,2013-08-06 01:39:00,
2013-08-05 20:44:00,96.3,67.3,29.89,SE,135,4.1,4.1,39,0.00,OVC,,0.00,0.0,WeatherDisplay:10.37,2013-08-06 01:44:00,
2013-08-05 20:49:00,96.1,67.1,29.88,ESE,112,3.5,3.5,39,0.00,OVC,,0.00,0.0,WeatherDisplay:10.37,2013-08-06 01:49:00,
2013-08-05 20:55:00,95.7,66.0,29.88,SSW,202,3.5,3.5,38,0.00,CLR,,0.00,0.0,WeatherDisplay:10.37,2013-08-06 01:55:00,
2013-08-05 21:00:00,95.7,66.8,29.88,West,270,0.0,2.0,39,0.00,CLR,,0.00,0.0,WeatherDisplay:10.37,2013-08-06 02:00:00,
2013-08-05 21:05:00,95.4,66.5,29.88,SE,135,6.0,6.0,39,0.00,CLR,,0.00,0.0,WeatherDisplay:10.37,2013-08-06 02:05:00,
2013-08-05 21:10:00,95.0,66.2,29.89,SE,135,3.5,3.5,39,0.00,CLR,,0.00,0.0,WeatherDisplay:10.37,2013-08-06 02:10:00,
2013-08-05 21:15:00,95.0,66.2,29.89,SSE,158,3.5,3.5,39,0.00,CLR,,0.00,0.0,WeatherDisplay:10.37,2013-08-06 02:15:00,
2013-08-05 21:21:00,94.8,66.7,29.89,SE,135,2.3,2.6,40,0.00,CLR,,0.00,0.0,WeatherDisplay:10.37,2013-08-06 02:21:00,
2013-08-05 21:26:00,94.5,66.4,29.89,SE,135,4.6,4.6,40,0.00,CLR,,0.00,0.0,WeatherDisplay:10.37,2013-08-06 02:26:00,
2013-08-05 21:32:00,94.3,66.3,29.91,SE,135,6.2,6.2,40,0.00,CLR,,0.00,0.0,WeatherDisplay:10.37,2013-08-06 02:32:00,
2013-08-05 21:37:00,93.9,65.9,29.91,SE,135,4.8,4.8,40,0.00,CLR,,0.00,0.0,WeatherDisplay:10.37,2013-08-06 02:37:00,
2013-08-05 21:42:00,94.1,66.1,29.91,SE,135,2.3,2.5,40,0.00,CLR,,0.00,0.0,WeatherDisplay:10.37,2013-08-06 02:42:00,
2013-08-05 21:47:00,93.6,65.6,29.91,South,180,5.8,5.8,40,0.00,CLR,,0.00,0.0,WeatherDisplay:10.37,2013-08-06 02:47:00,
2013-08-05 21:52:00,93.4,66.2,29.93,ESE,112,4.6,4.6,41,0.00,CLR,,0.00,0.0,WeatherDisplay:10.37,2013-08-06 02:52:00,
2013-08-05 21:58:00,93.2,66.0,29.93,SSE,158,4.6,4.6,41,0.00,CLR,,0.00,0.0,WeatherDisplay:10.37,2013-08-06 02:58:00,
2013-08-05 22:03:00,93.2,66.0,29.93,East,90,5.8,5.8,41,0.00,CLR,,0.00,0.0,WeatherDisplay:10.37,2013-08-06 03:03:00,
2013-08-05 22:08:00,93.0,65.8,29.93,SSE,158,5.8,5.8,41,0.00,CLR,,0.00,0.0,WeatherDisplay:10.37,2013-08-06 03:08:00,
2013-08-05 22:15:00,92.8,65.7,29.90,SSE,158,4.6,4.6,41,0.00,CLR,,0.00,0.0,WeatherDisplay:10.37,2013-08-06 03:15:00,
2013-08-05 22:20:00,92.7,65.5,29.90,SE,135,4.6,4.6,41,0.00,CLR,,0.00,0.0,WeatherDisplay:10.37,2013-08-06 03:20:00,
2013-08-05 22:25:00,92.5,65.4,29.90,ESE,112,2.3,3.2,41,0.00,CLR,,0.00,0.0,WeatherDisplay:10.37,2013-08-06 03:25:00,
2013-08-05 22:30:00,92.1,65.0,29.91,South,180,4.6,4.6,41,0.00,CLR,,0.00,0.0,WeatherDisplay:10.37,2013-08-06 03:30:00,
2013-08-05 22:36:00,92.1,65.0,29.91,SSE,158,2.3,2.6,41,0.00,CLR,,0.00,0.0,WeatherDisplay:10.37,2013-08-06 03:36:00,
2013-08-05 22:41:00,91.9,64.9,29.91,South,180,5.8,5.8,41,0.00,CLR,,0.00,0.0,WeatherDisplay:10.37,2013-08-06 03:41:00,
2013-08-05 22:46:00,91.8,64.7,29.91,SSW,202,4.6,4.6,41,0.00,CLR,,0.00,0.0,WeatherDisplay:10.37,2013-08-06 03:46:00,
2013-08-05 22:51:00,91.6,64.6,29.91,SE,135,4.6,4.6,41,0.00,CLR,,0.00,0.0,WeatherDisplay:10.37,2013-08-06 03:51:00,
2013-08-05 22:56:00,91.4,65.1,29.91,SE,135,3.8,3.8,42,0.00,CLR,,0.00,0.0,WeatherDisplay:10.37,2013-08-06 03:56:00,
2013-08-05 23:01:00,91.6,65.2,29.91,SSE,158,4.6,4.6,42,0.00,CLR,,0.00,0.0,WeatherDisplay:10.37,2013-08-06 04:01:00,
2013-08-05 23:02:00,91.6,65.2,29.91,SSE,158,2.3,3.3,42,0.00,CLR,,0.00,0.0,WeatherDisplay:10.37,2013-08-06 04:02:00,
2013-08-05 23:03:00,91.6,65.2,29.91,SE,135,4.6,4.6,42,0.00,CLR,,0.00,0.0,WeatherDisplay:10.37,2013-08-06 04:03:00,
2013-08-05 23:08:00,91.2,64.9,29.91,SSE,158,5.8,5.8,42,0.00,CLR,,0.00,0.0,WeatherDisplay:10.37,2013-08-06 04:08:00,
2013-08-05 23:13:00,91.2,64.9,29.92,SSE,158,4.6,4.6,42,0.00,CLR,,0.00,0.0,WeatherDisplay:10.37,2013-08-06 04:13:00,
2013-08-05 23:18:00,90.9,64.6,29.92,SSW,202,5.5,5.5,42,0.00,CLR,,0.00,0.0,WeatherDisplay:10.37,2013-08-06 04:18:00,
2013-08-05 23:24:00,90.9,64.6,29.92,NW,315,4.6,4.6,42,0.00,CLR,,0.00,0.0,WeatherDisplay:10.37,2013-08-06 04:24:00,
2013-08-05 23:29:00,90.9,64.6,29.90,SSE,158,5.8,5.8,42,0.00,CLR,,0.00,0.0,WeatherDisplay:10.37,2013-08-06 04:29:00,
2013-08-05 23:34:00,90.7,64.4,29.90,SSE,158,4.6,4.6,42,0.00,CLR,,0.00,0.0,WeatherDisplay:10.37,2013-08-06 04:34:00,
2013-08-05 23:39:00,90.3,64.8,29.90,ESE,112,5.8,5.8,43,0.00,CLR,,0.00,0.0,WeatherDisplay:10.37,2013-08-06 04:39:00,
2013-08-05 23:44:00,90.5,64.9,29.90,SE,135,2.3,3.1,43,0.00,CLR,,0.00,0.0,WeatherDisplay:10.37,2013-08-06 04:44:00,
2013-08-05 23:49:00,90.3,64.8,29.91,SSE,158,4.6,4.6,43,0.00,CLR,,0.00,0.0,WeatherDisplay:10.37,2013-08-06 04:49:00,
2013-08-05 23:55:00,90.1,65.3,29.91,SE,135,3.5,3.5,44,0.00,CLR,,0.00,0.0,WeatherDisplay:10.37,2013-08-06 04:55:00,